Hourly Data Report for October 18, 2014

All times are specified in Local Standard Time (LST). Add 1 hour to adjust for Daylight Saving Time where and when it is observed.

CHARLOTTETOWN A
PRINCE EDWARD ISLAND

46°17'21.000" N
63°07'09.000" W
48.50 m
8300301
71706
YYG

Download Data

Hourly Data (October 2014)
Hourly Data Report for October 18, 2014
Temp Definition
°C
Dew Point Temp Definition
°C
Rel Hum Definition
%
Wind Dir Definition
10's deg

Wind Spd Definition
km/h
Visibility Definition
km
Stn Press Definition
kPa
Hmdx Definition


Wind Chill Definition


Weather Definition


TIME
00:00 Legend Double Dagger 14.2 12.8 91 20 18 24.1 100.03     LegendNANA
01:00 Legend Double Dagger 14.2 12.4 89 21 16 24.1 100.03     LegendNANA
02:00 Legend Double Dagger 13.4 12.3 93 18 16 24.1 100.01     Mainly Clear
03:00 Legend Double Dagger 13.6 12.5 93 20 20 24.1 99.99     LegendNANA
04:00 Legend Double Dagger 13.6 12.5 93 19 18 19.3 100.02     LegendNANA
05:00 Legend Double Dagger 13.5 12.4 93 19 18 19.3 100.02     Cloudy
06:00 Legend Double Dagger 12.9 12.1 95 19 17 12.9 100.02     LegendNANA
07:00 Legend Double Dagger 13.1 12.2 94 19 16 24.1 100.03     LegendNANA
08:00 Legend Double Dagger 13.9 12.5 91 19 23 24.1 100.06     Mostly Cloudy
09:00 Legend Double Dagger 14.0 12.7 92 19 14 24.1 100.05     LegendNANA
10:00 Legend Double Dagger 14.7 12.8 88 20 20 24.1 100.00     LegendNANA
11:00 Legend Double Dagger 15.3 12.5 83 20 21 24.1 99.93     Mostly Cloudy
12:00 Legend Double Dagger 16.2 12.8 80 19 21 24.1 99.86     LegendNANA
13:00 Legend Double Dagger 17.5 12.5 72 19 28 24.1 99.79     LegendNANA
14:00 Legend Double Dagger 18.2 12.5 69 20 18 24.1 99.74     Mostly Cloudy
15:00 Legend Double Dagger 18.5 12.6 68 18 14 24.1 99.68     LegendNANA
16:00 Legend Double Dagger 17.5 12.7 73 17 12 24.1 99.65     LegendNANA
17:00 Legend Double Dagger 16.6 12.6 77 14 9 24.1 99.60     Mostly Cloudy
18:00 Legend Double Dagger 14.7 12.1 84 13 5 24.1 99.57     LegendNANA
19:00 Legend Double Dagger 13.1 12.3 95 0 1 24.1 99.57     LegendNANA
20:00 Legend Double Dagger 12.9 12.0 94 17 4 24.1 99.51     Mostly Cloudy
21:00 Legend Double Dagger 12.3 11.2 93 14 8 24.1 99.45     LegendNANA
22:00 Legend Double Dagger 11.6 10.5 93 16 10 24.1 99.39     LegendNANA
23:00 Legend Double Dagger 12.8 11.9 94 21 7 24.1 99.34     Mostly Cloudy

Notes on Data Quality.

Legend

  • E = Estimated
  • M = Missing
  • NA = Not Available
  • ‡ = Partner data that is not subject to review by the National Climate Archives
Date modified: